User: anonymous   Login
Location: Mary A Oil Field
(38.5606°N, 98.9545°W)
Time: 22:06:23
(UTC+00:00)
Language:

Cosmos 2082 - Orbit

View from above orbital plane
View from above orbital plane
View from above satellite
View from above satellite

Ground track
Ground track

The orbit data is extracted from the following two-line orbital elements,

1 20624U 90046A   20091.77548184 -.00000126  00000-0 -40951-4 0  9993
2 20624  71.0397 242.5188 0017531 273.7532  86.1586 14.14315974541204
Epoch (UTC): 31 March 2020 18:36:41
Eccentricity: 0.0017531
inclination: 71.0397°
perigee height: 832 km
apogee height: 857 km
right ascension of ascending node: 242.5188°
argument of perigee: 273.7532°
revolutions per day: 14.14315974
mean anomaly at epoch: 86.1586°
orbit number at epoch: 54120

The dashed part of the orbit path shows where the satellite is in the earth's shadow,  

DLR